Time,TemperatureF,DewpointF,PressureIn,WindDirection,WindDirectionDegrees,WindSpeedMPH,WindSpeedGustMPH,Humidity,HourlyPrecipIn,Conditions,Clouds,dailyrainin,SoftwareType,DateUTC
2013-03-14 00:12:00,29.0,25.0,29.75,North,0,0.0,0.0,84,0.00,,,0.00,,2013-03-14 04:12:00,
2013-03-14 00:22:00,29.0,25.0,29.75,North,0,0.0,0.0,84,0.00,,,0.00,,2013-03-14 04:22:00,
2013-03-14 00:32:00,28.0,24.0,29.75,North,0,0.0,0.0,85,0.00,,,0.00,,2013-03-14 04:32:00,
2013-03-14 00:42:00,28.0,24.0,29.75,North,0,0.0,0.0,85,0.00,,,0.00,,2013-03-14 04:42:00,
2013-03-14 00:52:00,28.0,24.0,29.75,North,0,0.0,0.0,85,0.00,,,0.00,,2013-03-14 04:52:00,
2013-03-14 01:02:00,28.0,24.0,29.75,SW,236,0.0,1.0,85,0.00,,,0.00,,2013-03-14 05:02:00,
2013-03-14 01:12:00,28.0,24.0,29.75,SW,236,0.0,1.0,85,0.00,,,0.00,,2013-03-14 05:12:00,
2013-03-14 01:22:00,28.0,24.0,29.75,SW,236,0.0,1.0,85,0.00,,,0.00,,2013-03-14 05:22:00,
2013-03-14 01:33:00,28.0,24.0,29.75,North,0,0.0,0.0,84,0.00,,,0.00,,2013-03-14 05:33:00,
2013-03-14 01:42:00,28.0,24.0,29.75,North,0,0.0,0.0,84,0.00,,,0.00,,2013-03-14 05:42:00,
2013-03-14 01:52:00,28.0,24.0,29.75,North,0,0.0,0.0,84,0.00,,,0.00,,2013-03-14 05:52:00,
2013-03-14 02:02:00,28.0,24.0,29.75,North,0,0.0,0.0,86,0.00,,,0.00,,2013-03-14 06:02:00,
2013-03-14 02:12:00,28.0,24.0,29.75,North,0,0.0,0.0,86,0.00,,,0.00,,2013-03-14 06:12:00,
2013-03-14 02:22:00,28.0,24.0,29.75,North,0,0.0,0.0,86,0.00,,,0.00,,2013-03-14 06:22:00,
2013-03-14 02:33:00,28.0,24.0,29.75,North,0,0.0,0.0,85,0.00,,,0.00,,2013-03-14 06:33:00,
2013-03-14 02:42:00,28.0,24.0,29.75,North,0,0.0,0.0,85,0.00,,,0.00,,2013-03-14 06:42:00,
2013-03-14 02:52:00,28.0,24.0,29.75,North,0,0.0,0.0,85,0.00,,,0.00,,2013-03-14 06:52:00,
2013-03-14 03:02:00,27.0,23.0,29.75,North,0,0.0,0.0,85,0.00,,,0.00,,2013-03-14 07:02:00,
2013-03-14 03:12:00,27.0,23.0,29.75,North,0,0.0,0.0,85,0.00,,,0.00,,2013-03-14 07:12:00,
2013-03-14 03:22:00,27.0,23.0,29.75,North,0,0.0,0.0,85,0.00,,,0.00,,2013-03-14 07:22:00,
2013-03-14 03:32:00,27.0,24.0,29.75,SW,232,0.0,3.0,87,0.00,,,0.00,,2013-03-14 07:32:00,
2013-03-14 03:43:00,27.0,24.0,29.75,SW,232,0.0,3.0,87,0.00,,,0.00,,2013-03-14 07:43:00,
2013-03-14 03:52:00,28.0,24.0,29.74,North,0,0.0,0.0,86,0.00,,,0.00,,2013-03-14 07:52:00,
2013-03-14 04:02:00,28.0,24.0,29.74,SW,231,0.0,1.0,85,0.00,,,0.00,,2013-03-14 08:02:00,
2013-03-14 04:12:00,28.0,24.0,29.74,SW,231,0.0,1.0,85,0.00,,,0.00,,2013-03-14 08:12:00,
2013-03-14 04:22:00,28.0,24.0,29.74,WSW,237,0.0,3.0,84,0.00,,,0.00,,2013-03-14 08:22:00,
2013-03-14 04:32:00,28.0,24.0,29.73,WSW,241,0.0,2.0,85,0.00,,,0.00,,2013-03-14 08:32:00,
2013-03-14 04:42:00,28.0,24.0,29.73,WSW,241,0.0,2.0,85,0.00,,,0.00,,2013-03-14 08:42:00,
2013-03-14 04:52:00,28.0,24.0,29.73,North,0,0.0,0.0,85,0.00,,,0.00,,2013-03-14 08:52:00,
2013-03-14 05:02:00,28.0,24.0,29.74,North,0,0.0,0.0,86,0.00,,,0.00,,2013-03-14 09:02:00,
2013-03-14 05:12:00,28.0,24.0,29.74,North,0,0.0,0.0,86,0.00,,,0.00,,2013-03-14 09:12:00,
2013-03-14 05:22:00,28.0,25.0,29.74,WSW,244,0.0,2.0,87,0.00,,,0.00,,2013-03-14 09:22:00,
2013-03-14 05:32:00,28.0,24.0,29.74,WSW,258,0.0,3.0,86,0.00,,,0.00,,2013-03-14 09:32:00,
2013-03-14 05:42:00,28.0,24.0,29.74,WSW,258,0.0,3.0,86,0.00,,,0.00,,2013-03-14 09:42:00,
2013-03-14 05:52:00,27.0,23.0,29.74,West,269,0.0,1.0,86,0.00,,,0.00,,2013-03-14 09:52:00,
2013-03-14 06:02:00,28.0,24.0,29.75,West,269,0.0,3.0,86,0.00,,,0.00,,2013-03-14 10:02:00,
2013-03-14 06:12:00,28.0,24.0,29.75,West,269,0.0,3.0,86,0.00,,,0.00,,2013-03-14 10:12:00,
2013-03-14 06:22:00,29.0,22.0,29.75,West,271,4.0,12.0,75,0.00,,,0.00,,2013-03-14 10:22:00,
2013-03-14 06:32:00,31.0,21.0,29.75,West,278,5.0,10.0,67,0.00,,,0.00,,2013-03-14 10:32:00,
2013-03-14 06:42:00,31.0,21.0,29.75,West,278,5.0,10.0,67,0.00,,,0.00,,2013-03-14 10:42:00,
2013-03-14 06:52:00,31.0,21.0,29.75,West,278,5.0,10.0,67,0.00,,,0.00,,2013-03-14 10:52:00,
2013-03-14 07:02:00,31.0,20.0,29.75,West,272,3.0,7.0,62,0.00,,,0.00,,2013-03-14 11:02:00,
2013-03-14 07:12:00,31.0,20.0,29.75,West,272,3.0,7.0,62,0.00,,,0.00,,2013-03-14 11:12:00,
2013-03-14 07:22:00,31.0,20.0,29.75,West,272,3.0,7.0,62,0.00,,,0.00,,2013-03-14 11:22:00,
2013-03-14 07:33:00,31.0,19.0,29.76,West,281,4.0,13.0,60,0.00,,,0.00,,2013-03-14 11:33:00,
2013-03-14 07:42:00,31.0,19.0,29.76,West,281,4.0,13.0,60,0.00,,,0.00,,2013-03-14 11:42:00,
2013-03-14 07:52:00,31.0,19.0,29.76,West,267,4.0,10.0,60,0.00,,,0.00,,2013-03-14 11:52:00,
2013-03-14 08:02:00,31.0,19.0,29.76,West,267,4.0,10.0,60,0.00,,,0.00,,2013-03-14 12:02:00,
2013-03-14 08:12:00,31.0,19.0,29.76,West,267,4.0,10.0,60,0.00,,,0.00,,2013-03-14 12:12:00,
2013-03-14 08:22:00,31.0,19.0,29.76,West,267,4.0,10.0,60,0.00,,,0.00,,2013-03-14 12:22:00,
2013-03-14 08:33:00,32.0,19.0,29.76,West,276,6.0,13.0,58,0.00,,,0.00,,2013-03-14 12:33:00,
2013-03-14 08:43:00,32.0,19.0,29.76,West,276,6.0,13.0,58,0.00,,,0.00,,2013-03-14 12:43:00,
2013-03-14 08:52:00,32.0,19.0,29.76,West,276,6.0,13.0,58,0.00,,,0.00,,2013-03-14 12:52:00,
2013-03-14 09:03:00,32.0,19.0,29.77,WNW,288,3.0,7.0,58,0.00,,,0.00,,2013-03-14 13:03:00,
2013-03-14 09:12:00,32.0,19.0,29.77,WNW,288,3.0,7.0,58,0.00,,,0.00,,2013-03-14 13:12:00,
2013-03-14 09:22:00,32.0,18.0,29.77,West,273,5.0,13.0,56,0.00,,,0.00,,2013-03-14 13:22:00,
2013-03-14 09:32:00,32.0,18.0,29.77,West,273,5.0,13.0,56,0.00,,,0.00,,2013-03-14 13:32:00,
2013-03-14 09:42:00,32.0,18.0,29.77,West,273,5.0,13.0,56,0.00,,,0.00,,2013-03-14 13:42:00,
2013-03-14 09:52:00,33.0,19.0,29.76,West,271,5.0,11.0,56,0.00,,,0.00,,2013-03-14 13:52:00,
2013-03-14 10:02:00,33.0,18.0,29.76,West,271,6.0,13.0,54,0.00,,,0.00,,2013-03-14 14:02:00,
2013-03-14 10:12:00,33.0,18.0,29.76,West,271,6.0,13.0,54,0.00,,,0.00,,2013-03-14 14:12:00,
2013-03-14 10:22:00,33.0,18.0,29.76,West,276,6.0,13.0,53,0.00,,,0.00,,2013-03-14 14:22:00,
2013-03-14 10:32:00,33.0,17.0,29.76,West,270,5.0,12.0,52,0.00,,,0.00,,2013-03-14 14:32:00,
2013-03-14 10:42:00,33.0,17.0,29.76,West,270,5.0,12.0,52,0.00,,,0.00,,2013-03-14 14:42:00,
2013-03-14 10:52:00,33.0,17.0,29.76,West,270,5.0,12.0,52,0.00,,,0.00,,2013-03-14 14:52:00,
2013-03-14 11:02:00,33.0,17.0,29.75,West,273,6.0,15.0,52,0.00,,,0.00,,2013-03-14 15:02:00,
2013-03-14 11:12:00,33.0,17.0,29.75,West,273,6.0,15.0,52,0.00,,,0.00,,2013-03-14 15:12:00,
2013-03-14 11:22:00,33.0,17.0,29.75,West,274,6.0,12.0,52,0.00,,,0.00,,2013-03-14 15:22:00,
2013-03-14 11:33:00,35.0,17.0,29.74,WSW,252,4.0,12.0,48,0.00,,,0.00,,2013-03-14 15:33:00,
2013-03-14 11:43:00,35.0,17.0,29.74,WSW,252,4.0,12.0,48,0.00,,,0.00,,2013-03-14 15:43:00,
2013-03-14 11:52:00,35.0,17.0,29.74,West,278,6.0,11.0,48,0.00,,,0.00,,2013-03-14 15:52:00,
2013-03-14 12:03:00,35.0,18.0,29.74,West,276,8.0,15.0,49,0.00,,,0.00,,2013-03-14 16:03:00,
2013-03-14 12:13:00,35.0,18.0,29.74,West,276,8.0,15.0,49,0.00,,,0.00,,2013-03-14 16:13:00,
2013-03-14 12:23:00,35.0,18.0,29.74,West,276,8.0,15.0,49,0.00,,,0.00,,2013-03-14 16:23:00,
2013-03-14 12:32:00,34.0,17.0,29.72,West,270,6.0,12.0,50,0.00,,,0.00,,2013-03-14 16:32:00,
2013-03-14 12:42:00,34.0,17.0,29.72,West,270,6.0,12.0,50,0.00,,,0.00,,2013-03-14 16:42:00,
2013-03-14 12:52:00,36.0,17.0,29.72,West,276,8.0,18.0,45,0.00,,,0.00,,2013-03-14 16:52:00,
2013-03-14 13:02:00,35.0,15.0,29.72,West,261,7.0,16.0,43,0.00,,,0.00,,2013-03-14 17:02:00,
2013-03-14 13:13:00,35.0,15.0,29.72,West,261,7.0,16.0,43,0.00,,,0.00,,2013-03-14 17:13:00,
2013-03-14 13:23:00,34.0,14.0,29.72,West,272,8.0,18.0,44,0.00,,,0.00,,2013-03-14 17:23:00,
2013-03-14 13:33:00,34.0,15.0,29.71,West,270,7.0,13.0,45,0.00,,,0.00,,2013-03-14 17:33:00,
2013-03-14 13:42:00,34.0,15.0,29.71,West,270,7.0,13.0,45,0.00,,,0.00,,2013-03-14 17:42:00,
2013-03-14 13:52:00,34.0,15.0,29.71,West,269,8.0,19.0,46,0.00,,,0.00,,2013-03-14 17:52:00,
2013-03-14 14:03:00,34.0,15.0,29.71,West,265,7.0,14.0,46,0.00,,,0.00,,2013-03-14 18:03:00,
2013-03-14 14:12:00,34.0,15.0,29.71,West,265,7.0,14.0,46,0.00,,,0.00,,2013-03-14 18:12:00,
2013-03-14 14:23:00,34.0,15.0,29.71,West,265,7.0,14.0,46,0.00,,,0.00,,2013-03-14 18:23:00,
2013-03-14 14:43:00,33.0,15.0,29.70,West,281,8.0,18.0,48,0.00,,,0.00,,2013-03-14 18:43:00,
2013-03-14 14:52:00,33.0,15.0,29.70,West,281,8.0,18.0,48,0.00,,,0.00,,2013-03-14 18:52:00,
2013-03-14 15:03:00,33.0,15.0,29.70,West,280,7.0,15.0,46,0.00,,,0.00,,2013-03-14 19:03:00,
2013-03-14 15:12:00,33.0,15.0,29.70,West,280,7.0,15.0,46,0.00,,,0.00,,2013-03-14 19:12:00,
2013-03-14 15:23:00,33.0,14.0,29.70,West,270,8.0,16.0,45,0.00,,,0.00,,2013-03-14 19:23:00,
2013-03-14 15:32:00,34.0,15.0,29.69,West,278,6.0,17.0,46,0.00,,,0.00,,2013-03-14 19:32:00,
2013-03-14 15:42:00,34.0,15.0,29.69,West,278,6.0,17.0,46,0.00,,,0.00,,2013-03-14 19:42:00,
2013-03-14 15:52:00,34.0,16.0,29.69,West,272,6.0,14.0,47,0.00,,,0.00,,2013-03-14 19:52:00,
2013-03-14 16:02:00,33.0,15.0,29.69,WNW,290,8.0,21.0,46,0.00,,,0.00,,2013-03-14 20:02:00,
2013-03-14 16:12:00,33.0,15.0,29.69,WNW,290,8.0,21.0,46,0.00,,,0.00,,2013-03-14 20:12:00,
2013-03-14 16:22:00,34.0,15.0,29.69,WNW,282,7.0,18.0,46,0.00,,,0.00,,2013-03-14 20:22:00,
2013-03-14 16:32:00,34.0,16.0,29.70,West,270,9.0,19.0,48,0.00,,,0.00,,2013-03-14 20:32:00,
2013-03-14 16:42:00,34.0,16.0,29.70,West,270,9.0,19.0,48,0.00,,,0.00,,2013-03-14 20:42:00,
2013-03-14 16:52:00,33.0,16.0,29.70,West,271,9.0,19.0,49,0.00,,,0.00,,2013-03-14 20:52:00,
2013-03-14 17:03:00,34.0,16.0,29.70,West,277,7.0,14.0,47,0.00,,,0.00,,2013-03-14 21:03:00,
2013-03-14 17:13:00,34.0,16.0,29.70,West,277,7.0,14.0,47,0.00,,,0.00,,2013-03-14 21:13:00,
2013-03-14 17:22:00,34.0,17.0,29.71,West,278,7.0,18.0,50,0.00,,,0.00,,2013-03-14 21:22:00,
2013-03-14 17:33:00,32.0,15.0,29.72,West,272,6.0,17.0,50,0.00,,,0.00,,2013-03-14 21:33:00,
2013-03-14 17:43:00,32.0,15.0,29.72,West,272,6.0,17.0,50,0.00,,,0.00,,2013-03-14 21:43:00,
2013-03-14 17:53:00,31.0,15.0,29.72,West,273,9.0,19.0,50,0.00,,,0.00,,2013-03-14 21:53:00,
2013-03-14 18:03:00,31.0,15.0,29.72,West,274,6.0,15.0,51,0.00,,,0.00,,2013-03-14 22:03:00,
2013-03-14 18:13:00,31.0,15.0,29.72,West,274,6.0,15.0,51,0.00,,,0.00,,2013-03-14 22:13:00,
2013-03-14 18:23:00,31.0,15.0,29.73,West,280,7.0,16.0,52,0.00,,,0.00,,2013-03-14 22:23:00,
2013-03-14 18:33:00,31.0,15.0,29.73,West,271,4.0,13.0,50,0.00,,,0.00,,2013-03-14 22:33:00,
2013-03-14 18:42:00,31.0,15.0,29.73,West,271,4.0,13.0,50,0.00,,,0.00,,2013-03-14 22:42:00,
2013-03-14 18:52:00,31.0,15.0,29.73,West,271,4.0,13.0,50,0.00,,,0.00,,2013-03-14 22:52:00,
2013-03-14 19:03:00,30.0,14.0,29.75,WNW,288,7.0,18.0,50,0.00,,,0.00,,2013-03-14 23:03:00,
2013-03-14 19:12:00,30.0,14.0,29.75,WNW,288,7.0,18.0,50,0.00,,,0.00,,2013-03-14 23:12:00,
2013-03-14 19:20:00,28.0,11.0,29.78,WNW,285,10.0,19.0,48,0.00,,,0.00,,2013-03-14 23:20:00,
2013-03-14 19:22:00,30.0,14.0,29.75,WNW,288,7.0,18.0,50,0.00,,,0.00,,2013-03-14 23:22:00,
2013-03-14 19:33:00,28.0,11.0,29.78,WNW,285,10.0,19.0,48,0.00,,,0.00,,2013-03-14 23:33:00,
2013-03-14 19:42:00,28.0,11.0,29.78,WNW,285,10.0,19.0,48,0.00,,,0.00,,2013-03-14 23:42:00,
2013-03-14 19:53:00,28.0,11.0,29.78,WNW,285,10.0,19.0,48,0.00,,,0.00,,2013-03-14 23:53:00,
2013-03-14 20:02:00,28.0,11.0,29.78,WNW,285,10.0,19.0,48,0.00,,,0.00,,2013-03-15 00:02:00,
2013-03-14 20:12:00,28.0,11.0,29.78,WNW,285,10.0,19.0,48,0.00,,,0.00,,2013-03-15 00:12:00,
2013-03-14 20:33:00,26.0,10.0,29.80,WNW,287,8.0,24.0,50,0.00,,,0.00,,2013-03-15 00:33:00,
2013-03-14 20:43:00,26.0,10.0,29.80,WNW,287,8.0,24.0,50,0.00,,,0.00,,2013-03-15 00:43:00,
2013-03-14 20:52:00,26.0,10.0,29.81,WNW,283,8.0,21.0,51,0.00,,,0.00,,2013-03-15 00:52:00,
2013-03-14 21:02:00,26.0,10.0,29.81,WNW,283,8.0,21.0,51,0.00,,,0.00,,2013-03-15 01:02:00,
2013-03-14 21:12:00,26.0,10.0,29.81,WNW,283,8.0,21.0,51,0.00,,,0.00,,2013-03-15 01:12:00,
2013-03-14 21:22:00,25.0,11.0,29.81,WNW,295,7.0,17.0,55,0.00,,,0.00,,2013-03-15 01:22:00,
2013-03-14 21:32:00,25.0,11.0,29.81,WNW,295,7.0,17.0,55,0.00,,,0.00,,2013-03-15 01:32:00,
2013-03-14 21:43:00,25.0,11.0,29.81,WNW,295,7.0,17.0,55,0.00,,,0.00,,2013-03-15 01:43:00,
2013-03-14 21:52:00,24.0,12.0,29.82,WNW,286,6.0,13.0,59,0.00,,,0.00,,2013-03-15 01:52:00,
2013-03-14 22:02:00,24.0,11.0,29.82,WNW,292,6.0,15.0,58,0.00,,,0.00,,2013-03-15 02:02:00,
2013-03-14 22:12:00,24.0,11.0,29.82,WNW,292,6.0,15.0,58,0.00,,,0.00,,2013-03-15 02:12:00,
2013-03-14 22:22:00,24.0,11.0,29.82,WNW,289,4.0,9.0,58,0.00,,,0.00,,2013-03-15 02:22:00,
2013-03-14 22:32:00,24.0,10.0,29.82,WNW,295,6.0,18.0,55,0.00,,,0.00,,2013-03-15 02:32:00,
2013-03-14 22:42:00,24.0,10.0,29.82,WNW,295,6.0,18.0,55,0.00,,,0.00,,2013-03-15 02:42:00,
2013-03-14 22:52:00,23.0,9.0,29.82,WNW,298,6.0,17.0,55,0.00,,,0.00,,2013-03-15 02:52:00,
2013-03-14 23:02:00,23.0,8.0,29.82,WNW,291,5.0,15.0,53,0.00,,,0.00,,2013-03-15 03:02:00,
2013-03-14 23:12:00,23.0,8.0,29.82,WNW,291,5.0,15.0,53,0.00,,,0.00,,2013-03-15 03:12:00,
2013-03-14 23:22:00,23.0,9.0,29.83,WNW,295,5.0,12.0,55,0.00,,,0.00,,2013-03-15 03:22:00,
2013-03-14 23:33:00,23.0,9.0,29.83,WNW,295,5.0,12.0,55,0.00,,,0.00,,2013-03-15 03:33:00,
2013-03-14 23:43:00,23.0,9.0,29.83,WNW,295,5.0,12.0,55,0.00,,,0.00,,2013-03-15 03:43:00,
2013-03-14 23:53:00,22.0,8.0,29.82,WNW,286,6.0,12.0,54,0.00,,,0.00,,2013-03-15 03:53:00,